Location: ??????
(55.2000°N, 38.3000°E)
Time: 17:52:32
(UTC+00:00)

Cosmos 1190 Rocket - Pass Details

Date: 15 November 2025
Orbit: 753 x 775 km, 74.1° (Epoch: 14 December)

Event Time Altitude Azimuth Distance (km) Brightness Sun altitude
Exits shadow 01:54:18 53° 185° (S) 937 4.3 -26.1°
Drops below altitude 10° 01:58:22 10° 164° (SSE) 2,299 6.6 -25.5°
Sets 02:00:43 0° 162° (SSE) 3,217 7.4 -25.1°
